Bedford Park, IL

3:25 PM CST on February 10, 2016 (GMT -0600)
Chicago-Midway

Weather History for KMDW - August, 2013

Change the Weather History Date:

Saturday, August 24, 2013

  Actual Average Record
Temperature  
Mean Temperature 75 °F 73 °F  
Max Temperature 86 °F 82 °F 100 °F (1947)
Min Temperature 64 °F 65 °F 48 °F (1942)
Degree Days  
Heating Degree Days 0 0  
Month to date heating degree days 0 0  
Since 1 June heating degree days 40 32  
Since 1 July heating degree days 4 1  
Cooling Degree Days 10 9  
Month to date cooling degree days 194 231  
Year to date cooling degree days 792 853  
Since 1 June cooling degree days 686 779  
Growing Degree Days 25 (Base 50)    
Moisture  
Dew Point 57 °F    
Average Humidity 52    
Maximum Humidity 81    
Minimum Humidity 26    
Precipitation  
Precipitation 0.00 in 0.13 in 1.20 in (2006)
Month to date precipitation 1.51 3.14  
Year to date precipitation 23.51 25.70  
Sea Level Pressure  
Sea Level Pressure 30.20 in    
Wind  
Wind Speed 6 mph (SSE)    
Max Wind Speed 13 mph    
Max Gust Speed 17 mph    
Visibility 10 miles    
Events      
T = Trace of Precipitation, MM = Missing Value Source: NWS Daily Summary

Daily Weather History Graph

Daily Weather History Graph

Search for Another Location

Airport or City:

Trip Planner

Search our weather history database for the weather conditions in past years. The results will help you decide how hot, cold, wet, or windy it might be!

Date:

Astronomy

Aug. 24, 2013 Rise Set
Actual Time 6:08 AM CDT 7:36 PM CDT
Civil Twilight 5:39 AM CDT 8:06 PM CDT
Nautical Twilight 5:04 AM CDT 8:41 PM CDT
Astronomical Twilight 4:27 AM CDT 9:18 PM CDT
Moon 9:26 PM CDT (8/24) 10:12 AM CDT (8/24)
Length of Visible Light 14h 26m
Length of Day
13h 28m
Waning Gibbous, 84% of the Moon is Illuminated
Aug 24
Waning Gibbous
Aug 28
Last Quarter
Sep 5
New
Sep 12
First Quarter
Sep 19
Full

Hourly Weather History & Observations

Time (CDT) Temp. Heat Index Dew Point Humidity Pressure Visibility Wind Dir Wind Speed Gust Speed Precip Events Conditions
12:51 AM 69.1 °F - 61.0 °F 75% 30.17 in 10.0 mi East 4.6 mph - N/A   Clear
1:51 AM 68.0 °F - 61.0 °F 78% 30.17 in 10.0 mi East 4.6 mph - N/A   Clear
2:51 AM 68.0 °F - 61.0 °F 78% 30.18 in 10.0 mi East 3.5 mph - N/A   Clear
3:51 AM 66.9 °F - 60.1 °F 79% 30.19 in 10.0 mi East 3.5 mph - N/A   Clear
4:51 AM 64.9 °F - 59.0 °F 81% 30.20 in 10.0 mi Calm Calm - N/A   Clear
5:51 AM 64.9 °F - 59.0 °F 81% 30.22 in 10.0 mi Calm Calm - N/A   Partly Cloudy
6:51 AM 66.0 °F - 57.9 °F 75% 30.23 in 10.0 mi SE 3.5 mph - N/A   Partly Cloudy
7:51 AM 69.1 °F - 54.0 °F 58% 30.24 in 10.0 mi SE 6.9 mph - N/A   Partly Cloudy
8:51 AM 72.0 °F - 55.9 °F 57% 30.25 in 10.0 mi Variable 5.8 mph - N/A   Partly Cloudy
9:51 AM 77.0 °F - 57.0 °F 50% 30.24 in 10.0 mi SSE 8.1 mph - N/A   Partly Cloudy
10:51 AM 80.1 °F 80.2 °F 55.9 °F 43% 30.24 in 10.0 mi South 6.9 mph - N/A   Partly Cloudy
11:51 AM 82.0 °F 81.7 °F 57.0 °F 42% 30.23 in 10.0 mi SSE 10.4 mph - N/A   Partly Cloudy
12:51 PM 82.9 °F 82.1 °F 55.9 °F 39% 30.22 in 10.0 mi South 4.6 mph - N/A   Scattered Clouds
1:51 PM 82.9 °F 82.1 °F 55.9 °F 39% 30.21 in 10.0 mi Variable 4.6 mph - N/A   Scattered Clouds
2:51 PM 84.9 °F 83.7 °F 55.9 °F 37% 30.20 in 10.0 mi South 8.1 mph - N/A   Partly Cloudy
3:51 PM 86.0 °F 84.7 °F 55.9 °F 36% 30.18 in 10.0 mi SSW 9.2 mph - N/A   Clear
4:51 PM 86.0 °F 84.7 °F 55.9 °F 36% 30.17 in 10.0 mi South 9.2 mph - N/A   Clear
5:51 PM 84.9 °F 83.7 °F 55.9 °F 37% 30.17 in 10.0 mi Variable 5.8 mph - N/A   Partly Cloudy
6:51 PM 82.9 °F 82.4 °F 57.0 °F 41% 30.17 in 10.0 mi South 9.2 mph - N/A   Partly Cloudy
7:51 PM 81.0 °F 81.0 °F 57.0 °F 44% 30.18 in 10.0 mi South 6.9 mph - N/A   Clear
8:51 PM 79.0 °F - 55.0 °F 44% 30.19 in 10.0 mi SSE 6.9 mph - N/A   Clear
9:51 PM 77.0 °F - 52.0 °F 42% 30.20 in 10.0 mi SSE 5.8 mph - N/A   Clear
10:51 PM 75.9 °F - 52.0 °F 43% 30.20 in 10.0 mi SSE 6.9 mph - N/A   Partly Cloudy
11:51 PM 73.9 °F - 52.0 °F 46% 30.20 in 10.0 mi SSE 4.6 mph - N/A   Partly Cloudy